CAPE
0 0 0 0 0 0 0 0 0 0 0 0 0 0 0 0 0 0 0 0 0 0 0 0 0 0 0 0 13 105 97 66 15 2 2 3 3 3 3 1 1 0 0 0
0 0 0 0 0 0 0 0 0 0 0 0 0 0 0 0 0 0 0 0 0 0 0 0 0 0 0 0 0 20 40 53 31 44 7 2 2 1 0 0 0 0 0 0
0 0 0 0 0 0 0 0 0 0 0 0 0 0 0 0 0 0 0 0 0 0 0 0 0 0 0 0 0 0 18 19 27 33 53 16 1 1 2 1 1 0 0 0
0 0 0 0 0 0 0 0 0 0 0 0 0 0 0 0 0 0 0 0 0 0 0 0 0 0 0 0 0 0 0 0 0 1 57 44 9 0 0 1 3 3 0 0
0 0 0 0 0 0 0 0 0 0 0 0 0 0 0 0 0 0 0 0 0 0 0 0 0 0 0 0 0 0 0 0 0 0 2 3 51 11 2 5 1 0 0 0
0 0 0 0 0 0 0 0 0 0 0 0 0 0 0 0 0 0 0 0 0 0 0 0 0 0 0 0 0 0 0 0 0 0 0 0 5 67 62 8 11 1 2 1
0 0 0 0 0 0 0 0 0 0 0 0 0 0 0 0 0 0 0 0 0 0 0 0 0 0 0 0 0 0 0 0 0 0 0 0 0 10 83 46 18 5 3 1
0 0 0 0 0 0 0 0 0 0 0 0 0 0 0 0 0 0 0 0 0 0 0 0 0 0 0 0 0 0 0 0 0 0 0 0 0 0 16 62 59 26 1 0
0 0 0 0 0 0 0 0 0 0 0 0 0 0 0 0 0 0 0 0 0 0 0 0 0 0 0 0 0 0 0 0 0 0 0 0 0 0 1 42 88 47 3 1
0 0 0 0 0 0 0 0 0 0 0 0 0 0 0 0 0 0 0 0 0 0 0 0 0 0 0 0 0 0 0 0 0 0 0 0 0 0 0 5 1 36 34 3
0 0 0 0 0 0 0 0 0 0 0 0 0 0 0 0 0 0 0 0 0 0 0 0 0 0 0 0 0 0 0 0 0 0 0 0 0 0 1 1 0 0 0 8
0 0 0 0 0 0 0 0 0 0 0 0 0 0 0 0 0 0 0 0 0 0 0 0 0 0 0 0 0 0 0 0 0 0 0 0 0 0 0 2 21 0 4 0
0 0 0 0 0 0 0 0 0 0 0 0 0 0 0 0 0 0 0 0 0 0 0 0 0 0 0 0 0 0 0 0 0 0 0 0 0 0 0 2 1 36 0 0
0 0 0 0 0 0 0 0 0 0 0 0 0 0 0 0 0 0 0 0 0 0 0 0 0 0 0 0 0 0 0 0 0 0 0 0 0 0 0 0 1 0 3 0
0 0 0 0 0 0 0 0 0 0 0 0 0 0 0 0 0 0 0 0 0 0 0 0 0 0 0 0 0 0 0 0 0 0 0 0 1 1 1 0 0 0 1 0
0 0 0 0 0 0 0 0 0 0 0 0 0 0 0 0 0 0 0 0 0 0 0 0 0 0 0 0 0 0 0 0 0 0 0 0 0 1 1 1 1 1 3 3
0 0 0 0 0 0 0 0 0 0 0 0 0 0 0 0 0 0 0 0 0 0 0 0 0 0 0 1 2 0 0 0 0 0 0 0 1 1 2 2 1 2 3 2
0 0 0 0 0 0 0 0 0 0 0 0 0 0 0 0 0 0 0 0 0 0 0 0 1 0 0 0 0 0 0 0 0 0 0 1 1 1 2 2 2 2 3 3
0 0 0 0 0 0 0 0 0 0 0 0 0 0 0 0 0 0 0 0 0 0 0 1 0 0 0 0 0 1 0 0 0 0 0 1 1 1 2 2 2 3 3 4
0 0 0 0 0 0 0 0 0 0 0 0 0 0 0 0 0 0 0 0 0 0 0 1 0 0 0 0 0 0 0 0 0 2 1 1 1 1 2 2 2 2 3 4
0 0 0 0 0 0 0 0 0 0 0 0 0 0 0 0 0 0 0 0 0 0 1 0 0 0 1 1 0 0 1 0 2 1 1 1 1 1 1 1 1 2 3 2
0 0 0 0 0 0 0 0 0 0 0 0 0 0 0 0 0 0 0 0 0 0 0 0 0 0 0 0 0 0 0 0 0 0 0 0 0 0 0 0 1 2 1 2
0 0 0 0 0 0 0 0 0 0 0 0 0 0 0 0 0 0 0 0 0 0 0 0 0 0 1 1 0 0 0 0 0 0 0 0 0 0 0 0 1 0 1 1
0 0 0 0 0 0 0 0 0 0 0 0 0 0 0 0 0 0 0 0 0 0 0 0 0 0 0 0 0 0 0 0 0 0 0 0 0 0 0 0 0 1 1 1
0 0 0 0 0 0 0 0 0 0 0 0 0 0 0 0 0 0 0 0 0 0 0 0 0 0 0 0 0 0 0 0 0 0 0 0 0 0 0 0 0 0 0 0
0 0 0 0 0 0 0 0 0 0 0 0 0 0 0 0 0 0 0 0 0 0 0 0 0 0 0 0 0 0 0 0 0 0 0 0 0 0 0 0 0 1 1 0
CIN
0 0 0 0 0 0 0 0 0 0 0 0 0 0 0 0 0 0 0 0 0 0 0 0 0 0 0 0 -11 0 -4 -43 -46 -54 0 0 0 0 0 0 0 0 0 0
0 0 0 0 0 0 0 0 0 0 0 0 0 0 0 0 0 0 0 0 0 0 0 0 0 0 0 0 0 -3 -3 -29 -21 -10 -24 0 0 0 0 0 0 0 0 0
0 0 0 0 0 0 0 0 0 0 0 0 0 0 0 0 0 0 0 0 0 0 0 0 0 0 0 0 0 0 -7 -2 0 -5 -1 -2 -1 0 0 0 0 0 0 0
0 0 0 0 0 0 0 0 0 0 0 0 0 0 0 0 0 0 0 0 0 0 0 0 0 0 0 0 0 0 0 0 0 0 -1 0 -11 0 0 0 0 0 0 0
0 0 0 0 0 0 0 0 0 0 0 0 0 0 0 0 0 0 0 0 0 0 0 0 0 0 0 0 0 0 0 0 0 0 0 0 0 -7 -34 -98 0 0 0 0
0 0 0 0 0 0 0 0 0 0 0 0 0 0 0 0 0 0 0 0 0 0 0 0 0 0 0 0 0 0 0 0 0 0 0 0 0 0 0 -23 -71 -36 0 0
0 0 0 0 0 0 0 0 0 0 0 0 0 0 0 0 0 0 0 0 0 0 0 0 0 0 0 0 0 0 0 0 0 0 0 0 0 0 0 0 -30 -72 -102 0
0 0 0 0 0 0 0 0 0 0 0 0 0 0 0 0 0 0 0 0 0 0 0 0 0 0 0 0 0 0 0 0 0 0 0 0 0 0 0 -1 -1 -48 -7 -5
0 0 0 0 0 0 0 0 0 0 0 0 0 0 0 0 0 0 0 0 0 0 0 0 0 0 0 0 0 0 0 0 0 0 0 0 0 0 0 -2 0 -18 -31 0
0 0 0 0 0 0 0 0 0 0 0 0 0 0 0 0 0 0 0 0 0 0 0 0 0 0 0 0 0 0 0 0 0 0 0 0 0 0 0 -22 0 -7 -24 -32
0 0 0 0 0 0 0 0 0 0 0 0 0 0 0 0 0 0 0 0 0 0 0 0 0 0 0 0 0 0 0 0 0 0 0 0 0 0 0 -17 -2 0 -1 -55
0 0 0 0 0 0 0 0 0 0 0 0 0 0 0 0 0 0 0 0 0 0 0 0 0 0 0 0 0 0 0 0 0 0 0 0 0 0 0 -4 -31 0 -4 0
0 0 0 0 0 0 0 0 0 0 0 0 0 0 0 0 0 0 0 0 0 0 0 0 0 0 0 0 0 0 0 0 0 0 0 0 0 0 0 0 0 -23 -10 0
0 0 0 0 0 0 0 0 0 0 0 0 0 0 0 0 0 0 0 0 0 0 0 0 0 0 0 0 0 0 0 0 0 0 0 0 0 0 0 0 0 0 -28 0
0 0 0 0 0 0 0 0 0 0 0 0 0 0 0 0 0 0 0 0 0 0 0 0 0 0 0 0 0 0 0 0 0 0 0 0 0 0 0 0 0 0 0 0
0 0 0 0 0 0 0 0 0 0 0 0 0 0 0 0 0 0 0 0 0 0 0 0 0 0 0 0 0 0 0 0 0 0 0 0 0 0 0 0 0 0 0 0
0 0 0 0 0 0 0 0 0 0 0 0 0 0 0 0 0 0 0 0 0 0 0 0 0 0 0 0 0 0 0 0 0 0 0 0 0 0 0 0 0 0 0 0
0 0 0 0 0 0 0 0 0 0 0 0 0 0 0 0 0 0 0 0 0 0 0 0 0 0 0 0 0 0 0 0 0 0 0 0 0 0 0 0 0 0 0 0
0 0 0 0 0 0 0 0 0 0 0 0 0 0 0 0 0 0 0 0 0 0 0 0 0 0 0 0 0 0 0 0 0 0 0 0 0 0 0 0 0 0 0 0
0 0 0 0 0 0 0 0 0 0 0 0 0 0 0 0 0 0 0 0 0 0 0 0 0 0 0 0 0 0 0 0 0 0 0 0 0 0 0 0 0 0 0 0
0 0 0 0 0 0 0 0 0 0 0 0 0 0 0 0 0 0 0 0 0 0 0 0 0 0 0 0 0 0 0 0 0 0 0 0 0 0 0 0 0 0 0 0
0 0 0 0 0 0 0 0 0 0 0 0 0 0 0 0 0 0 0 0 0 0 0 0 0 0 0 0 0 0 0 0 0 0 0 0 0 0 0 0 0 0 0 0
0 0 0 0 0 0 0 0 0 0 0 0 0 0 0 0 0 0 0 0 0 0 0 0 0 0 0 0 0 0 0 0 0 0 0 0 0 0 0 0 0 0 0 0
0 0 0 0 0 0 0 0 0 0 0 0 0 0 0 0 0 0 0 0 0 0 0 0 0 0 0 0 0 0 0 0 0 0 0 0 0 0 0 0 0 0 0 0
0 0 0 0 0 0 0 0 0 0 0 0 0 0 0 0 0 0 0 0 0 0 0 0 0 0 0 0 0 0 0 0 0 0 0 0 0 0 0 0 0 0 0 0
0 0 0 0 0 0 0 0 0 0 0 0 0 0 0 0 0 0 0 0 0 0 0 0 0 0 0 0 0 0 0 0 0 0 0 0 0 0 0 0 0 0 0 0
Wind_Speed
27 32 35 35 35 31 33 37 38 34 34 47 43 49 49 48 48 50 47 47 47 44 41 40 41 38 34 34 36 37 39 40 33 35 38 38 40 37 36 35 34 33 32 29
25 31 28 26 32 33 33 39 42 34 34 42 43 47 41 43 47 45 43 45 45 43 41 38 35 35 39 37 37 39 38 42 40 37 37 38 39 38 38 37 35 35 34 32
25 22 21 26 32 36 32 40 41 40 38 33 46 37 40 40 43 45 40 41 39 41 40 38 35 32 32 38 39 38 36 41 44 40 39 40 38 38 37 39 38 35 33 32
19 19 23 24 31 33 36 29 31 33 37 44 39 44 37 39 45 45 42 41 35 35 40 39 37 35 33 34 39 40 40 40 40 40 41 41 41 38 40 39 37 36 33 32
22 20 21 25 26 27 27 28 30 28 30 34 37 38 37 37 44 45 43 38 29 26 36 43 41 39 38 37 35 38 42 41 42 43 45 40 43 42 38 37 35 36 36 35
19 17 17 19 22 23 26 29 27 28 30 39 34 39 37 41 40 38 38 36 29 26 29 43 46 44 41 40 40 37 40 44 44 47 47 46 39 44 40 37 36 35 36 35
21 17 18 19 24 23 32 34 38 39 43 41 30 36 30 31 33 33 35 33 30 28 28 32 46 48 48 45 44 43 41 43 44 45 47 50 51 40 45 39 36 35 34 34
24 23 21 23 25 29 32 32 35 42 43 39 30 31 32 28 28 29 30 32 30 30 30 29 27 39 48 48 46 46 45 44 42 44 46 45 48 49 42 41 39 35 36 34
23 21 21 22 23 26 28 32 25 31 31 38 30 29 29 25 28 30 33 34 35 34 32 31 29 26 27 47 49 47 47 46 43 41 44 46 45 47 48 48 43 39 36 33
21 25 21 22 23 23 24 21 32 32 41 46 36 34 31 30 30 32 35 36 37 35 33 32 33 33 30 29 45 46 45 46 45 42 40 42 44 42 45 49 40 44 38 36
22 22 26 25 24 25 24 27 26 27 29 39 43 36 21 24 27 31 33 36 35 35 34 33 34 32 30 33 36 43 44 44 44 42 40 40 41 42 43 43 44 37 38 35
19 24 27 28 22 19 22 23 22 32 34 27 32 35 21 22 26 31 32 35 35 35 35 35 35 35 35 38 42 41 42 43 42 39 40 39 39 40 40 40 40 36 34 35
18 25 34 30 25 23 22 20 19 24 26 28 32 31 26 27 29 33 32 36 37 38 37 36 36 34 30 39 46 43 40 41 38 36 38 39 37 37 38 37 39 45 36 33
16 21 23 28 30 25 25 23 17 19 29 29 26 31 27 27 31 33 32 34 38 39 39 37 36 32 29 27 44 43 41 38 37 35 36 37 37 36 35 36 35 33 36 34
18 25 21 20 19 22 21 22 19 21 21 28 29 28 27 28 29 31 31 34 37 38 39 38 34 32 28 24 32 41 38 37 34 34 33 33 32 34 33 33 32 29 25 25
17 26 26 29 20 18 22 20 19 20 20 24 25 28 26 24 24 30 31 34 36 38 39 35 33 29 29 27 23 38 36 35 31 32 32 31 30 29 28 28 29 25 21 20
18 21 28 29 24 25 26 22 19 19 17 18 24 24 24 25 27 31 30 30 32 35 39 33 32 28 27 29 27 21 34 30 28 31 31 30 28 27 23 21 23 22 19 14
19 19 21 28 30 33 21 23 21 19 20 15 19 19 21 24 24 26 23 27 32 35 35 29 27 26 26 26 25 18 22 24 26 28 29 28 27 25 23 15 16 17 15 13
17 15 22 25 27 25 26 21 23 21 26 17 13 16 24 24 27 28 27 27 30 31 30 26 22 23 23 24 25 23 22 24 25 26 27 26 25 23 20 16 12 10 11 9
13 14 14 21 27 30 23 20 20 24 29 21 15 24 30 29 30 33 28 26 28 29 27 25 20 20 19 21 17 18 23 25 25 24 23 21 20 19 16 16 9 6 5 5
17 15 14 16 22 21 15 15 21 27 30 18 19 26 33 27 21 24 18 23 27 27 27 24 20 22 18 14 12 10 9 11 22 19 18 16 14 12 11 9 6 2 0 1
17 15 15 14 18 29 10 15 20 23 23 21 21 23 26 20 19 24 19 23 28 28 26 26 24 20 21 20 18 18 16 14 13 3 10 12 9 8 6 4 3 2 4 3
21 14 17 11 15 16 9 16 16 23 23 21 21 19 18 16 15 27 21 24 27 27 25 26 26 22 25 23 22 21 20 20 20 22 7 6 4 4 4 3 4 5 4 5
21 15 17 21 16 20 18 20 22 19 17 15 16 16 16 13 14 16 23 24 24 26 24 24 28 31 29 29 27 24 24 23 24 26 19 3 3 5 5 6 10 14 9 9
21 12 17 24 23 27 21 16 17 11 12 13 12 16 18 15 15 13 14 24 22 22 22 23 26 27 29 30 31 28 27 29 32 31 28 4 13 2 3 7 9 14 12 14
21 22 21 25 26 24 18 24 20 16 18 17 15 17 18 15 14 11 10 17 19 18 16 18 20 23 24 25 28 29 27 28 31 30 25 26 27 26 21 16 6 1 4 6
Wind_Direction
17 9 6 13 17 21 14 4 358 359 356 345 346 338 338 342 347 340 343 343 337 328 315 302 289 283 292 290 279 270 263 259 262 260 255 255 254 255 254 252 251 251 253 252
11 5 19 26 19 17 12 5 360 2 358 350 346 340 350 352 352 351 349 348 346 337 327 316 305 291 274 287 289 280 269 262 259 262 260 257 257 257 256 253 252 251 252 252
9 27 35 27 20 12 16 7 3 358 359 1 346 351 352 359 357 357 360 356 356 340 330 322 314 307 293 280 287 284 282 269 262 262 263 261 260 256 255 254 253 252 251 251
23 30 24 22 13 13 7 14 5 3 3 353 2 346 355 360 358 0 0 360 2 353 332 324 319 306 301 294 286 284 281 278 272 268 263 260 256 255 254 255 256 255 251 250
4 18 23 16 18 17 10 4 2 7 8 3 2 353 353 0 358 1 3 5 4 3 348 326 319 311 299 296 295 287 278 279 276 274 266 273 257 257 257 254 253 254 253 251
14 21 28 20 16 16 3 6 11 11 8 0 4 358 354 357 360 1 4 4 3 0 354 334 319 311 302 297 291 295 284 278 276 272 268 263 278 257 256 254 253 253 253 254
0 13 18 17 9 10 6 5 358 357 357 356 3 356 355 358 0 2 2 2 2 359 354 348 329 312 301 298 291 289 290 285 277 275 270 267 261 274 254 255 254 253 253 253
354 354 4 5 6 0 4 7 3 351 351 350 356 355 357 359 358 2 4 2 359 352 349 346 342 331 310 298 292 285 284 286 281 275 275 272 268 266 273 254 257 254 254 254
349 351 355 358 3 4 1 1 9 358 357 351 358 353 349 2 3 3 1 0 357 354 350 348 345 338 333 310 294 283 281 280 283 280 274 272 270 268 264 266 255 256 255 258
342 343 350 356 359 5 4 14 358 0 351 347 351 351 349 355 355 356 357 355 352 351 348 344 341 339 334 329 310 290 282 278 277 281 280 273 268 265 267 259 263 255 257 257
344 344 344 350 354 354 358 355 2 1 357 349 346 350 354 348 350 351 353 351 350 347 345 342 340 335 332 328 324 303 286 284 278 275 277 278 272 264 265 265 263 266 260 258
344 340 337 342 355 359 355 354 356 351 350 349 344 340 356 350 351 350 347 347 347 345 344 343 339 336 331 324 315 309 293 285 283 284 274 276 275 271 268 266 265 262 267 264
343 336 333 341 351 357 352 351 348 352 350 340 344 342 358 353 349 344 343 346 346 346 344 344 345 342 337 323 301 305 301 288 284 285 286 275 276 273 265 269 269 259 264 267
341 333 331 332 337 347 340 342 337 339 338 339 320 313 318 330 340 344 342 344 346 347 348 349 351 353 350 338 299 299 295 295 283 283 284 283 277 276 275 267 270 272 260 262
334 328 328 320 320 324 311 320 320 315 309 328 325 326 317 329 336 339 340 342 346 348 350 352 352 353 352 349 331 305 298 294 286 280 284 286 290 279 271 268 266 264 276 264
331 328 334 332 332 331 322 315 320 308 308 308 305 308 308 311 323 339 343 346 347 350 351 351 351 352 355 356 351 312 293 291 291 281 282 287 287 291 284 274 265 270 274 274
327 330 335 333 348 343 340 357 351 349 345 340 337 335 342 342 343 346 346 346 349 351 352 352 354 355 356 357 360 353 295 294 295 285 282 285 285 285 291 287 272 267 265 273
319 325 333 330 342 342 359 360 359 348 346 337 336 334 340 341 343 346 349 353 355 352 353 354 359 360 1 2 5 14 342 306 297 292 284 282 281 281 284 302 287 269 266 261
312 320 329 331 335 333 347 9 6 359 351 340 334 352 350 350 353 359 6 6 357 356 356 3 5 5 7 12 12 9 358 312 300 304 290 282 279 278 278 279 291 285 262 257
313 313 315 330 330 336 352 2 7 1 352 13 19 2 358 356 355 355 4 2 2 3 8 11 13 13 15 20 25 22 359 321 306 305 307 290 280 278 277 273 287 296 285 263
318 314 284 305 323 330 326 349 360 356 351 1 359 356 355 353 353 353 352 5 9 11 17 21 24 24 28 31 42 65 81 19 319 318 316 301 284 287 285 280 297 333 322 163
301 306 308 313 318 329 4 11 350 348 352 353 350 348 349 351 352 356 2 10 14 18 24 29 33 41 44 48 59 64 75 100 131 128 281 280 287 298 316 290 291 51 95 131
293 285 302 278 312 334 325 331 329 340 339 337 342 347 353 353 356 353 5 13 17 23 31 37 42 50 52 59 68 71 75 82 98 109 236 282 300 325 343 38 67 78 85 97
289 279 290 305 290 284 285 292 302 309 310 317 330 339 349 344 351 356 358 9 17 24 35 43 46 49 56 60 70 80 85 93 74 79 49 213 15 31 43 54 60 73 73 76
284 270 278 287 287 305 281 296 312 293 309 318 325 341 343 342 340 349 360 359 13 24 35 45 48 55 56 58 66 82 92 93 88 101 115 116 57 156 84 56 56 68 62 72
264 266 266 285 303 306 311 326 331 327 329 332 330 333 337 337 334 335 339 350 3 19 37 45 57 61 69 75 73 82 98 100 94 79 128 136 138 150 166 173 55 327 14 33